Showing default

QIANFAN-106, 66048

Orbit data source: Space-Track

QIANFAN-106, 66048 is a Chinese payload satellite in LEO that was launched on Fri, 17 Oct 2025 UTC via a CHANG ZHENG 6A launch vehicle from the Taiyaun Space Center, China (TSC). Payload-class satellites include a variety of spacecraft equipped with specific instruments for various scientific and technological missions. These include communications satellites like Starlink; space stations such as the ISS; scientific satellites like the Hubble; Earth observation satellites from companies like Planet Labs, Umbra, and HawkEye 360; GPS; miniature CubeSats for education and research; and military/defense satellites.

Loading next visibility...
Identifier
66048, 2025-233R
Orbit
LEO
Country
Flag of CNCN / PRC
Related business
Manufacturer
SECM
Mission
Operational Commercial Communications
Bus & Motor
QIANFAN, Unknown motor
Mass
267 kg wet, ~267 kg dry
Launch date (UTC)
2025-10-17 (8 months ago)
Launch vehicle
CHANG ZHENG 6A
Launch site
Taiyaun Space Center, China (TSC)
Object type
Payload
Rocket body
Debris
Shape & HBR
Box + 1 Pan, 14.5 m
Radar Cross Section
13.200 m², Large (>1 m²)

Expand to show TLE details & history
Last TLE update: 11 hours ago

TLE from 11 hours ago
0 QIANFAN-106
1 66048U 25233R   26177.59680872  .00000090  00000-0  12130-3 0  9996
2 66048  88.9988  42.2038 0002310  87.4687 272.6729 13.51013304 34453
Epoch: 2026-06-26T14:19Z
TLE epoch observation values (Epoch: 2026-06-26T14:19:24.273Z)
Latitude
0.00002°
Longitude
-87.37038°
Altitude
1,071.406 km
Speed
7.316 km/s
True Right ascension
02h 48m 48s
True Declination
0° 00' 00"
Sunlit
Object was in daylight at epoch
Visualization orbit readout
Latitude
Unknown
Longitude
Unknown
Altitude
Unknown
Speed
Unknown
Apparent Right ascension
Unknown
Apparent Declination
Unknown
Sunlit
N/A
Visualization observer readout
Local Sidereal Time
12:09:34
Azimuth
Unknown
Elevation
Unknown
Doppler factor
Unknown
Orbital elements
Apogee altitude
1,067.303 km
Perigee altitude
1,063.864 km
Semi-major axis
7,443.721 km
Eccentricity
0.00023
Inclination
88.9988°
RAAN
42.2038°
Arg. of periapsis
87.4687°
True anomaly
272.64646°
Mean anomaly
272.6729°
Eccentric anomaly
272.65968°
Mean motion
3.37954 °/min
Orbital period
106.52 mins
BSTAR
0.0001213
Loading maneuver chart data...
Computing Atmospheric mass density...
Loading historical data...
Loading historical data...
Loading historical data...
Loading historical data...
Loading historical data...
Loading historical data...
Loading historical data...

Documentation

Showing up to 5 results
|